timestamp,surface_pressure_avg,surface_temp_avg,battery_voltage,lat,long
2020-01-09 00:09:01+00:00,330.6163,1.28,12.41,47.84626,-54.09684
2020-01-09 00:19:01+00:00,327.5247,1.3,12.41,47.84626,-54.09684
2020-01-09 00:29:01+00:00,306.403,1.3,12.41,47.84626,-54.09684
2020-01-09 00:39:01+00:00,299.0164,1.3,12.41,47.84626,-54.09684
2020-01-09 00:49:01+00:00,305.0114,1.3,12.41,47.84626,-54.09684
2020-01-09 00:59:01+00:00,295.3447,1.3,12.41,47.84626,-54.09684
2020-01-09 01:09:01+00:00,273.5798,1.26,12.41,47.84626,-54.09684
2020-01-09 01:19:01+00:00,272.7248,1.26,12.41,47.84626,-54.09684
2020-01-09 01:29:01+00:00,276.9381,1.26,12.41,47.84626,-54.09684
2020-01-09 01:39:01+00:00,269.7614,1.2,12.41,47.84626,-54.09684
2020-01-09 01:49:01+00:00,266.4331,1.21,12.41,47.84626,-54.09684
2020-01-09 01:59:01+00:00,277.8148,1.27,12.41,47.84626,-54.09684
2020-01-09 02:09:01+00:00,273.1597,1.3,12.41,47.84626,-54.09684
2020-01-09 02:19:01+00:00,255.8981,1.3,12.41,47.84626,-54.09684
2020-01-09 02:29:01+00:00,252.8331,1.3,12.41,47.84626,-54.09684
2020-01-09 02:39:01+00:00,254.2814,1.38,12.41,47.84626,-54.09684
2020-01-09 02:49:01+00:00,244.5431,1.4,12.41,47.84626,-54.09684
2020-01-09 02:59:01+00:00,240.2398,1.39,12.41,47.84626,-54.09684
2020-01-09 03:09:01+00:00,244.5047,1.4,12.41,47.84626,-54.09684
2020-01-09 03:19:01+00:00,238.8515,1.4,12.41,47.84626,-54.09684
2020-01-09 03:29:01+00:00,239.1631,1.4,12.41,47.84626,-54.09684
2020-01-09 03:39:01+00:00,248.5414,1.49,12.41,47.84626,-54.09684
2020-01-09 03:49:01+00:00,249.3364,1.5,12.41,47.84626,-54.09684
2020-01-09 03:59:01+00:00,238.4615,1.5,12.41,47.84626,-54.09684
2020-01-09 04:09:01+00:00,228.6014,1.5,12.41,47.84626,-54.09684
2020-01-09 04:19:01+00:00,236.0797,1.5,12.41,47.84626,-54.09684
2020-01-09 04:29:01+00:00,237.6698,1.5,12.41,47.84626,-54.09684
2020-01-09 04:39:01+00:00,224.0981,1.5,12.41,47.84626,-54.09684
2020-01-09 04:49:01+00:00,218.2781,1.53,12.41,47.84626,-54.09684
2020-01-09 04:59:01+00:00,227.7448,1.52,12.41,47.84626,-54.09684
2020-01-09 05:09:01+00:00,232.7382,1.6,12.41,47.84626,-54.09684
2020-01-09 05:19:01+00:00,232.9564,1.68,12.41,47.84626,-54.09684
2020-01-09 05:29:01+00:00,239.6665,1.7,12.41,47.84626,-54.09684
2020-01-09 05:39:01+00:00,239.2464,1.75,12.41,47.84626,-54.09684
2020-01-09 05:49:01+00:00,236.7148,1.8,12.41,47.84626,-54.09684
2020-01-09 05:59:01+00:00,250.7531,1.8,12.41,47.84626,-54.09684
2020-01-09 06:09:01+00:00,262.6031,1.88,12.41,47.84626,-54.09684
2020-01-09 06:19:01+00:00,258.3347,1.9,12.41,47.84626,-54.09684
2020-01-09 06:29:01+00:00,258.1614,1.91,12.41,47.84626,-54.09684
2020-01-09 06:39:01+00:00,267.9514,1.92,12.41,47.84626,-54.09684
2020-01-09 06:49:01+00:00,270.7364,1.96,12.41,47.84626,-54.09684
2020-01-09 06:59:01+00:00,280.7679,1.99,12.41,47.84626,-54.09684
2020-01-09 07:09:01+00:00,296.413,1.98,12.41,47.84626,-54.09684
2020-01-09 07:19:01+00:00,296.7014,1.95,12.41,47.84626,-54.09684
2020-01-09 07:29:01+00:00,289.0514,1.9,12.41,47.84626,-54.09684
2020-01-09 07:39:01+00:00,304.4396,1.9,12.41,47.84626,-54.09684
2020-01-09 07:49:01+00:00,323.5746,1.9,12.41,47.84626,-54.09684
2020-01-09 07:59:01+00:00,321.4863,1.9,12.41,47.84626,-54.09684
2020-01-09 08:09:01+00:00,310.3997,1.9,12.41,47.84626,-54.09684
2020-01-09 08:19:01+00:00,326.633,1.9,12.41,47.84626,-54.09684
2020-01-09 08:29:01+00:00,338.7897,1.9,12.41,47.84626,-54.09684
2020-01-09 08:39:01+00:00,327.2662,1.85,12.41,47.84626,-54.09684
2020-01-09 08:49:01+00:00,328.5413,1.88,12.41,47.84626,-54.09684
2020-01-09 08:59:01+00:00,344.93800000000016,1.89,12.41,47.84626,-54.09684
2020-01-09 09:09:01+00:00,348.1929,1.86,12.41,47.84626,-54.09684
2020-01-09 09:19:01+00:00,341.6412,1.81,12.41,47.84626,-54.09684
2020-01-09 09:29:01+00:00,344.8646,1.8,12.41,47.84626,-54.09684
2020-01-09 09:39:01+00:00,345.4996,1.8,12.41,47.84626,-54.09684
2020-01-09 09:49:01+00:00,333.7229,1.8,12.41,47.84626,-54.09684
2020-01-09 09:59:01+00:00,324.343,1.8,12.41,47.84626,-54.09684
2020-01-09 10:09:01+00:00,338.9213,1.79,12.41,47.84626,-54.09684
2020-01-09 10:19:01+00:00,350.1931,1.78,12.41,47.84626,-54.09684
2020-01-09 10:29:01+00:00,336.5063,1.7,12.41,47.84626,-54.09684
2020-01-09 10:39:01+00:00,329.903,1.7,12.41,47.84626,-54.09684
2020-01-09 10:49:01+00:00,342.9796,1.7,12.41,47.84626,-54.09684
2020-01-09 10:59:01+00:00,346.7346,1.7,12.41,47.84626,-54.09684
2020-01-09 11:09:01+00:00,344.0113,1.7,12.41,47.84626,-54.09684
2020-01-09 11:19:01+00:00,358.81800000000015,1.7,12.41,47.84626,-54.09684
2020-01-09 11:29:01+00:00,354.6629,1.7,12.41,47.84626,-54.09684
2020-01-09 11:39:01+00:00,334.2363,1.7,12.41,47.84626,-54.09684
2020-01-09 11:49:01+00:00,335.7112,1.7,12.41,47.84626,-54.09684
2020-01-09 11:59:01+00:00,343.0596,1.7,12.41,47.84626,-54.09684
2020-01-09 12:09:01+00:00,333.8113,1.7,12.41,47.84626,-54.09684
2020-01-09 12:19:01+00:00,320.158,1.67,12.41,47.84626,-54.09684
2020-01-09 12:29:01+00:00,317.9413,1.66,12.41,47.84626,-54.09684
2020-01-09 12:39:01+00:00,304.0663,1.62,12.41,47.84626,-54.09684
2020-01-09 12:49:01+00:00,287.1364,1.6,12.41,47.84626,-54.09684
2020-01-09 12:59:01+00:00,287.2914,1.65,12.41,47.84626,-54.09684
2020-01-09 13:09:01+00:00,281.6998,1.62,12.41,47.84626,-54.09684
2020-01-09 13:19:01+00:00,267.2531,1.61,12.49,47.84626,-54.09684
2020-01-09 13:29:01+00:00,255.6997,1.62,12.49,47.84626,-54.09684
2020-01-09 13:39:01+00:00,255.3597,1.63,12.49,47.84626,-54.09684
2020-01-09 13:49:01+00:00,248.5431,1.63,12.49,47.84626,-54.09684
2020-01-09 13:59:01+00:00,233.7481,1.6,12.49,47.84626,-54.09684
2020-01-09 14:09:01+00:00,229.8064,1.6,12.49,47.84626,-54.09684
2020-01-09 14:19:01+00:00,224.7781,1.6,12.65,47.84626,-54.09684
2020-01-09 14:29:01+00:00,210.2998,1.6,12.65,47.84626,-54.09684
2020-01-09 14:39:01+00:00,201.1598,1.6,12.65,47.84626,-54.09684
2020-01-09 14:49:01+00:00,200.9414,1.6,12.65,47.84626,-54.09684
2020-01-09 14:59:01+00:00,196.4531,1.6,12.65,47.84626,-54.09684
2020-01-09 15:09:01+00:00,190.0548,1.6,12.65,47.84626,-54.09684
2020-01-09 15:19:01+00:00,193.7115,1.6,12.81,47.84626,-54.09684
2020-01-09 15:29:01+00:00,194.8015,1.6,12.81,47.84626,-54.09684
2020-01-09 15:39:01+00:00,181.4115,1.6,12.81,47.84626,-54.09684
2020-01-09 15:49:01+00:00,177.1031,1.6,12.81,47.84626,-54.09684
2020-01-09 15:59:01+00:00,186.3015,1.6,12.81,47.84626,-54.09684
2020-01-09 16:09:01+00:00,180.4365,1.6,12.81,47.84626,-54.09684
2020-01-09 16:19:01+00:00,171.1382,1.62,13.21,47.84626,-54.09684
2020-01-09 16:29:01+00:00,173.2031,1.6,13.21,47.84626,-54.09684
2020-01-09 16:39:01+00:00,175.4415,1.6,13.21,47.84626,-54.09684
2020-01-09 16:49:01+00:00,172.5831,1.6,13.21,47.84626,-54.09684
2020-01-09 16:59:01+00:00,170.5998,1.61,13.21,47.84626,-54.09684
2020-01-09 17:09:01+00:00,179.4382,1.6,13.21,47.84626,-54.09684
2020-01-09 17:19:01+00:00,182.2598,1.65,13.05,47.84626,-54.09684
2020-01-09 17:29:01+00:00,172.0482,1.63,13.05,47.84626,-54.09684
2020-01-09 17:39:01+00:00,177.3948,1.6,13.05,47.84626,-54.09684
2020-01-09 17:49:01+00:00,191.7898,1.6,13.05,47.84626,-54.09684
2020-01-09 17:59:01+00:00,191.6364,1.6,13.05,47.84626,-54.09684
2020-01-09 18:09:01+00:00,186.6414,1.61,13.05,47.84626,-54.09684
2020-01-09 18:19:01+00:00,194.7298,1.6,13.05,47.84626,-54.09684
2020-01-09 18:29:01+00:00,200.2948,1.66,13.05,47.84626,-54.09684
2020-01-09 18:39:01+00:00,200.8931,1.65,13.05,47.84626,-54.09684
2020-01-09 18:49:01+00:00,212.9431,1.61,13.05,47.84626,-54.09684
2020-01-09 18:59:01+00:00,225.3631,1.64,13.05,47.84626,-54.09684
2020-01-09 19:09:01+00:00,221.3514,1.6,13.05,47.84626,-54.09684
2020-01-09 19:19:01+00:00,226.0631,1.6,12.97,47.84626,-54.09684
2020-01-09 19:29:01+00:00,244.1031,1.6,12.97,47.84626,-54.09684
2020-01-09 19:39:01+00:00,246.1214,1.6,12.97,47.84626,-54.09684
2020-01-09 19:49:01+00:00,242.0831,1.6,12.97,47.84626,-54.09684
2020-01-09 19:59:01+00:00,248.1247,1.6,12.97,47.84626,-54.09684
2020-01-09 20:09:01+00:00,261.7748,1.6,12.97,47.84626,-54.09684
2020-01-09 20:19:01+00:00,261.8881,1.6,12.81,47.84626,-54.09684
2020-01-09 20:29:01+00:00,258.9781,1.6,12.81,47.84626,-54.09684
2020-01-09 20:39:01+00:00,276.1047,1.6,12.81,47.84626,-54.09684
2020-01-09 20:49:01+00:00,289.7547,1.6,12.81,47.84626,-54.09684
2020-01-09 20:59:01+00:00,288.118,1.6,12.81,47.84626,-54.09684
2020-01-09 21:09:01+00:00,292.3015,1.6,12.81,47.84626,-54.09684
2020-01-09 21:19:01+00:00,311.5963,1.6,12.73,47.84626,-54.09684
2020-01-09 21:29:01+00:00,319.4896,1.59,12.73,47.84626,-54.09684
2020-01-09 21:39:01+00:00,315.9613,1.58,12.73,47.84626,-54.09684
2020-01-09 21:49:01+00:00,326.4097,1.58,12.73,47.84626,-54.09684
2020-01-09 21:59:01+00:00,344.7313,1.5,12.73,47.84626,-54.09684
2020-01-09 22:09:01+00:00,350.4613,1.5,12.73,47.84626,-54.09684
2020-01-09 22:19:01+00:00,348.4414,1.5,12.65,47.84626,-54.09684
2020-01-09 22:29:01+00:00,355.278,1.54,12.65,47.84626,-54.09684
2020-01-09 22:39:01+00:00,369.7229,1.5,12.65,47.84626,-54.09684
2020-01-09 22:49:01+00:00,370.12800000000004,1.5,12.65,47.84626,-54.09684
2020-01-09 22:59:01+00:00,366.9512,1.5,12.65,47.84626,-54.09684
2020-01-09 23:09:01+00:00,372.9379,1.5,12.65,47.84626,-54.09684
2020-01-09 23:19:01+00:00,380.403,1.5,12.57,47.84626,-54.09684
2020-01-09 23:29:01+00:00,373.258,1.5,12.57,47.84626,-54.09684
2020-01-09 23:39:01+00:00,366.2313,1.5,12.57,47.84626,-54.09684
2020-01-09 23:49:01+00:00,372.0513,1.5,12.57,47.84626,-54.09684
2020-01-09 23:59:01+00:00,372.9429,1.5,12.57,47.84626,-54.09684
